Terminal Aerodrome Forecast
Issued by NWS Missoula, MT

Home | Current Version | Previous Version | Text Only | Print | Product List | Glossary On
Versions: 1 2 3 4 5 6 7 8 9 10 11 12 13 14 15 16 17
000
FTUS45 KMSO 290536
TAFMSO
TAF
KMSO 290536Z 2906/3006 14007KT 3SM FU OVC120
     FM291200 16008KT 4SM FU VCSH OVC100
     FM291700 19014G25KT 5SM FU SCT100
     FM291900 21014G25KT 6SM FU VCSH OVC100
     FM300200 31015G28KT P6SM SCT050 BKN090=

USA.gov is the U.S. government's official web portal to all federal, state and local government web resources and services.